Wind_Speed
13 13 13 13 13 12 12 12 12 11 11 11 11 11 11 11 10 9 9 10 10 10 10 10 10 9 9 8 8 8 8 8 8 8 8 8 7 8 8 8 8 8 8
15 15 15 15 14 14 14 14 14 13 13 13 13 12 12 12 12 11 11 11 12 11 11 11 11 11 10 10 10 10 10 10 10 10 10 9 9 9 9 9 9 9 9
16 16 16 16 16 16 16 16 16 16 16 15 15 15 14 14 14 13 13 13 13 13 12 12 12 12 11 11 11 12 11 11 11 11 11 11 11 10 10 10 10 10 11
17 17 17 17 18 18 17 17 17 17 17 17 17 17 16 16 16 15 15 15 15 15 14 14 14 13 13 13 13 13 13 13 13 13 13 13 12 12 11 11 11 11 12
19 19 19 19 19 19 19 19 18 19 18 18 18 19 18 18 18 17 17 17 16 16 16 16 16 16 15 15 15 15 15 15 14 14 15 14 14 13 13 13 13 13 13
20 21 21 21 20 20 20 20 20 20 20 20 21 20 20 20 20 19 19 19 18 18 18 18 19 18 18 18 17 17 17 17 16 16 16 16 16 15 15 15 15 15 15
22 22 22 22 22 22 22 22 22 22 22 22 22 22 22 22 22 22 21 21 21 21 21 21 21 21 21 21 20 20 20 19 19 18 18 18 18 18 17 17 17 17 16
24 24 24 24 23 23 22 23 23 23 23 24 24 24 24 24 24 24 24 24 24 23 23 23 22 22 23 23 23 22 22 22 21 21 21 21 20 20 19 19 19 18 18
24 24 25 25 24 24 24 24 24 25 26 26 26 26 26 26 26 26 26 26 26 26 25 25 25 24 24 25 25 24 24 24 23 23 23 23 23 22 22 21 21 21 20
25 25 25 25 25 25 26 26 26 26 26 27 27 27 27 27 28 28 28 28 28 28 27 27 27 27 27 27 27 27 27 26 26 25 25 25 25 25 24 24 24 23 23
26 26 26 26 26 27 27 27 27 27 27 28 28 28 29 29 29 29 30 30 30 30 30 30 30 30 29 30 29 29 29 29 29 28 27 27 27 27 27 27 27 26 26
26 27 27 28 28 28 28 28 29 29 29 29 29 29 30 31 31 31 32 32 32 32 32 32 32 32 31 31 31 31 31 31 30 30 30 29 29 29 29 29 29 29 29
27 28 28 28 29 29 29 30 30 30 31 31 31 31 31 32 32 33 33 33 34 34 34 34 34 34 34 33 33 33 33 33 33 32 32 32 31 31 31 32 32 32 32
29 29 29 29 30 31 31 31 32 32 32 33 33 33 33 34 34 34 34 35 35 35 36 36 37 36 36 36 35 35 35 35 35 35 34 34 34 34 34 35 34 34 34
30 31 31 31 32 32 32 33 33 34 34 34 34 34 35 35 35 35 36 36 36 37 38 38 38 39 39 38 38 37 37 37 37 37 37 37 37 37 37 37 37 37 36
32 32 33 34 34 34 34 34 35 35 36 36 36 37 37 37 37 38 38 38 39 39 40 40 40 40 41 40 40 39 38 38 39 39 39 39 39 39 39 40 40 39 39
34 34 35 35 36 36 36 36 36 37 37 38 38 39 40 40 40 40 40 40 41 42 42 42 42 42 42 42 42 42 41 40 41 40 40 41 41 41 41 42 42 42 42
35 35 36 36 37 37 38 38 39 39 39 39 40 41 41 42 42 42 43 42 42 43 43 44 45 45 44 44 43 43 43 43 43 43 43 43 43 44 44 44 45 44 44
36 37 37 37 38 39 39 40 40 41 41 41 41 42 42 43 43 44 44 45 44 45 45 46 47 46 46 45 46 46 46 46 46 46 46 46 46 46 47 47 47 47 47
38 38 38 39 40 40 41 41 42 43 43 43 43 43 44 44 45 45 46 47 47 47 47 48 48 48 48 48 48 48 49 49 49 49 49 49 49 50 50 50 50 50 50
39 39 40 40 41 42 42 42 43 43 44 44 44 45 45 45 46 47 47 48 49 49 49 49 50 50 50 50 50 50 51 52 52 52 52 52 52 53 53 53 52 53 53
40 40 41 41 42 43 43 44 44 44 44 45 45 45 46 47 48 48 48 49 50 51 51 52 52 52 52 52 53 53 53 54 54 54 54 54 54 55 55 55 55 55 55
41 41 41 42 42 43 44 44 45 46 45 46 47 47 48 49 49 50 49 50 50 51 52 53 53 54 54 55 55 55 56 56 55 55 56 55 56 56 57 57 57 58 58
41 42 43 43 44 44 45 45 46 46 47 48 48 49 49 50 50 51 50 51 51 52 52 53 53 54 55 56 56 57 58 58 57 56 55 56 57 57 57 58 59 60 60
42 42 43 44 45 46 47 47 47 48 48 48 49 49 49 50 50 51 51 51 52 52 53 54 54 55 55 55 56 57 58 58 59 59 57 57 58 58 59 59 61 62 62
42 43 44 45 45 46 47 48 48 48 49 49 49 50 50 51 51 51 52 52 53 53 53 53 54 55 55 56 57 58 58 59 59 60 60 59 59 59 59 59 60 61 62
Wind_Direction
258 260 260 260 259 260 262 261 261 261 262 263 262 262 262 263 263 259 258 259 261 262 263 263 262 264 260 257 254 252 251 250 249 248 251 253 251 251 251 251 246 241 239
256 258 260 260 261 261 263 264 264 263 262 262 262 262 261 262 262 261 260 262 262 261 261 262 262 263 261 257 256 253 252 250 248 248 251 254 255 255 257 254 248 247 244
256 257 259 261 262 262 262 264 264 264 262 262 261 260 260 260 261 263 261 265 263 260 259 261 262 262 259 258 257 254 253 252 250 250 251 253 255 257 259 255 251 250 248
258 259 261 261 262 262 262 263 263 263 263 262 261 261 261 260 261 261 262 264 263 261 261 261 263 262 260 259 259 258 256 254 254 253 253 253 254 255 256 257 255 255 254
259 260 262 261 261 261 261 262 263 262 261 261 261 261 261 260 260 260 260 261 261 262 262 261 262 263 261 260 260 259 258 255 254 255 255 255 254 254 254 255 255 255 256
262 261 262 261 261 261 260 261 263 262 261 262 262 261 261 260 260 260 260 260 261 261 262 263 263 263 262 261 261 260 259 258 256 256 257 256 255 255 255 255 255 256 257
263 263 263 262 261 262 261 262 263 262 262 262 262 262 262 261 261 261 261 261 262 263 263 263 264 264 262 261 262 262 261 259 258 256 256 256 255 255 255 255 256 255 255
264 263 263 263 262 262 261 261 262 262 262 263 263 263 263 262 261 261 260 260 261 262 263 262 262 263 261 261 262 262 262 261 260 258 257 256 255 255 255 255 256 256 256
266 266 265 265 263 263 263 263 263 263 263 264 264 263 263 262 262 261 260 260 260 260 261 262 261 262 262 262 261 261 261 261 261 259 259 258 256 255 255 255 256 256 256
267 267 267 267 266 266 266 265 265 265 265 264 264 264 263 262 262 262 261 260 260 260 260 261 261 261 262 263 261 260 260 261 261 260 260 259 258 256 254 255 255 256 256
267 267 267 267 268 267 267 268 268 268 267 265 265 264 263 262 262 263 262 262 260 259 259 260 260 261 262 262 262 260 260 260 260 259 259 259 259 258 256 255 255 255 255
268 268 268 267 267 268 268 269 269 268 267 266 265 264 264 264 263 263 263 262 261 260 259 259 260 260 261 262 262 261 260 260 260 259 259 259 259 259 258 256 256 256 255
268 269 269 269 269 269 269 269 269 268 268 266 265 264 264 265 265 264 263 262 261 260 259 259 259 260 261 262 262 262 261 260 260 259 259 259 259 259 259 257 256 256 256
269 269 270 271 270 270 270 270 269 269 269 269 268 267 266 266 265 264 264 263 262 261 260 260 260 261 261 261 262 262 261 261 260 259 259 258 259 259 259 258 256 256 256
270 270 271 270 271 271 271 271 270 271 271 270 270 268 267 267 266 265 264 263 263 261 261 262 261 262 262 262 262 262 263 261 261 260 259 260 260 260 259 258 256 256 257
270 269 270 270 271 271 272 272 272 272 272 271 270 268 267 267 266 265 265 264 264 263 263 263 262 262 261 262 262 262 262 263 262 261 260 260 260 260 260 258 256 257 257
270 270 270 270 271 272 272 273 273 273 272 271 270 268 267 267 266 266 265 265 265 265 264 264 263 262 262 262 262 262 262 263 263 262 262 261 261 261 260 259 257 257 257
270 270 270 271 271 271 272 272 273 272 272 271 270 269 268 268 267 266 266 266 266 265 265 265 265 264 264 263 263 263 263 264 263 262 262 262 262 261 260 260 259 257 257
271 271 271 271 271 271 271 272 272 272 272 271 271 270 269 269 268 268 267 266 266 266 266 266 266 265 265 265 264 264 264 264 265 264 263 263 262 262 261 260 259 257 256
272 272 272 272 272 273 272 272 272 272 271 271 271 270 269 268 269 269 269 267 266 266 266 267 267 266 266 266 266 266 266 266 266 265 264 263 262 262 261 260 259 258 257
272 272 272 272 272 272 272 272 273 273 272 272 271 270 269 269 270 270 270 269 268 267 268 268 267 267 267 267 267 267 267 267 267 266 266 265 263 262 262 260 259 259 257
272 272 272 272 273 273 273 273 272 273 273 272 271 270 270 269 270 270 270 270 270 269 269 269 268 267 267 268 268 268 267 266 266 266 266 265 264 263 262 261 260 260 258
273 273 273 273 272 272 272 272 271 272 273 273 272 271 271 271 271 270 270 270 271 271 270 269 268 268 268 269 269 269 268 267 265 265 265 265 264 263 262 261 260 260 259
273 273 273 273 273 272 272 271 271 271 272 273 272 272 272 272 272 272 270 270 271 272 272 270 268 268 269 270 270 270 269 269 267 265 264 264 264 263 262 261 261 260 260
273 273 273 273 273 273 272 271 271 271 272 272 272 272 272 273 273 272 271 272 272 273 273 271 270 269 270 271 270 270 269 269 268 267 264 264 264 263 263 262 261 260 259
273 273 273 273 273 273 272 271 271 271 272 272 272 273 274 274 274 273 273 273 273 274 274 272 271 270 270 271 270 269 268 268 268 268 266 264 263 263 263 262 260 260 258
Height
5818 5818 5819 5819 5820 5821 5821 5822 5823 5823 5824 5824 5825 5825 5826 5827 5827 5828 5829 5829 5830 5831 5832 5832 5833 5834 5835 5836 5837 5838 5839 5840 5841 5842 5842 5843 5844 5845 5846 5847 5847 5848 5849
5815 5816 5816 5817 5817 5818 5819 5819 5820 5820 5821 5822 5822 5823 5824 5824 5825 5826 5827 5827 5828 5829 5829 5830 5831 5832 5833 5834 5835 5836 5837 5838 5839 5840 5841 5842 5843 5843 5844 5845 5846 5847 5848
5812 5812 5813 5813 5814 5815 5816 5816 5817 5817 5818 5818 5819 5820 5821 5821 5822 5823 5824 5825 5826 5826 5827 5828 5829 5830 5830 5831 5832 5833 5834 5835 5836 5838 5839 5840 5841 5842 5842 5843 5844 5845 5846
5808 5809 5809 5810 5811 5811 5812 5813 5813 5814 5814 5815 5816 5817 5817 5818 5819 5820 5821 5822 5823 5823 5824 5825 5826 5827 5828 5829 5830 5831 5832 5833 5834 5835 5836 5837 5838 5839 5840 5841 5842 5843 5844
5804 5805 5805 5806 5807 5807 5808 5809 5809 5810 5811 5811 5812 5813 5814 5815 5816 5817 5817 5818 5819 5820 5821 5822 5823 5824 5825 5826 5827 5828 5829 5830 5831 5832 5833 5834 5835 5837 5838 5839 5840 5841 5842
5800 5801 5801 5802 5803 5803 5804 5804 5805 5806 5807 5807 5808 5809 5809 5810 5812 5813 5814 5814 5815 5816 5817 5818 5819 5820 5821 5822 5824 5825 5826 5827 5828 5829 5830 5831 5832 5833 5835 5836 5837 5838 5839
5795 5796 5797 5797 5798 5799 5799 5800 5801 5801 5802 5803 5803 5804 5805 5806 5807 5808 5809 5810 5811 5812 5813 5814 5815 5816 5817 5818 5819 5821 5822 5823 5824 5825 5826 5828 5829 5830 5831 5832 5833 5834 5835
5790 5791 5792 5792 5793 5794 5794 5795 5796 5797 5797 5798 5798 5799 5800 5801 5802 5803 5804 5805 5806 5807 5808 5809 5810 5811 5813 5814 5815 5816 5817 5819 5820 5821 5822 5823 5825 5826 5827 5828 5829 5830 5832
5785 5786 5787 5787 5788 5789 5789 5790 5790 5791 5792 5792 5793 5793 5794 5795 5796 5797 5798 5800 5801 5802 5803 5804 5805 5806 5807 5809 5810 5811 5812 5813 5815 5816 5817 5819 5820 5821 5822 5824 5825 5826 5827
5780 5781 5781 5782 5783 5783 5784 5784 5784 5785 5785 5786 5787 5787 5788 5789 5790 5791 5792 5793 5794 5796 5797 5798 5799 5800 5802 5803 5804 5805 5807 5808 5809 5811 5812 5813 5814 5816 5817 5818 5820 5821 5823
5775 5775 5776 5776 5777 5777 5778 5778 5778 5778 5779 5779 5780 5781 5782 5783 5784 5785 5786 5787 5788 5789 5790 5791 5792 5794 5795 5796 5798 5799 5800 5802 5803 5805 5806 5807 5809 5810 5811 5813 5814 5816 5817
5769 5770 5770 5770 5771 5771 5771 5771 5771 5772 5772 5772 5773 5774 5774 5775 5776 5777 5778 5779 5780 5781 5783 5784 5785 5786 5788 5789 5791 5792 5794 5795 5796 5798 5800 5801 5802 5804 5805 5806 5808 5810 5811
5763 5763 5763 5764 5764 5764 5764 5764 5764 5764 5765 5765 5766 5766 5767 5767 5768 5769 5770 5771 5772 5773 5774 5776 5777 5779 5780 5781 5783 5785 5786 5788 5789 5791 5792 5794 5795 5797 5798 5799 5801 5803 5804
5756 5757 5757 5757 5757 5757 5757 5757 5757 5757 5757 5757 5758 5758 5759 5759 5760 5761 5762 5762 5763 5765 5766 5767 5769 5770 5772 5773 5775 5776 5778 5780 5781 5783 5784 5786 5787 5789 5790 5791 5793 5795 5796
5750 5750 5750 5750 5750 5750 5749 5749 5749 5749 5749 5749 5749 5750 5750 5751 5751 5752 5753 5753 5754 5756 5757 5758 5760 5761 5763 5764 5766 5768 5769 5771 5773 5774 5776 5777 5779 5780 5782 5783 5785 5786 5788
5742 5742 5742 5742 5742 5742 5741 5741 5741 5741 5741 5741 5741 5741 5741 5742 5742 5743 5744 5745 5745 5746 5747 5749 5750 5752 5753 5755 5756 5758 5760 5761 5763 5765 5766 5768 5769 5771 5772 5774 5775 5777 5779
5735 5734 5734 5734 5733 5733 5733 5733 5733 5732 5732 5732 5732 5732 5732 5732 5733 5734 5734 5735 5736 5736 5737 5738 5739 5741 5743 5744 5746 5748 5749 5751 5753 5754 5756 5757 5759 5760 5762 5764 5765 5767 5769
5726 5726 5726 5725 5725 5725 5724 5724 5723 5723 5723 5722 5722 5722 5722 5722 5723 5723 5724 5725 5725 5726 5727 5727 5728 5730 5732 5734 5735 5737 5738 5740 5741 5743 5745 5746 5748 5749 5751 5753 5754 5756 5758
5718 5717 5717 5716 5716 5715 5715 5715 5714 5713 5713 5712 5712 5712 5711 5712 5712 5712 5713 5713 5714 5715 5715 5716 5717 5718 5720 5722 5724 5725 5727 5728 5729 5731 5732 5734 5735 5737 5739 5740 5742 5744 5746
5708 5708 5707 5707 5706 5705 5705 5704 5704 5703 5702 5702 5701 5701 5701 5700 5700 5700 5701 5701 5702 5703 5703 5704 5705 5706 5707 5709 5711 5713 5714 5715 5716 5718 5719 5720 5722 5723 5725 5727 5729 5731 5733
5698 5697 5697 5696 5696 5695 5695 5694 5693 5692 5691 5691 5690 5689 5689 5689 5689 5688 5688 5689 5689 5690 5691 5692 5692 5693 5695 5696 5698 5700 5701 5701 5702 5703 5705 5706 5707 5708 5710 5712 5714 5717 5719
5687 5686 5686 5686 5685 5684 5684 5683 5682 5681 5680 5679 5678 5677 5677 5676 5676 5676 5675 5676 5676 5676 5677 5678 5678 5680 5681 5682 5683 5685 5687 5688 5688 5688 5689 5690 5691 5693 5695 5697 5699 5701 5704
5676 5676 5675 5675 5674 5673 5672 5671 5670 5669 5668 5667 5666 5665 5664 5663 5663 5662 5662 5662 5662 5662 5662 5663 5664 5665 5666 5667 5667 5668 5670 5671 5673 5674 5673 5674 5675 5676 5678 5680 5682 5685 5687
5666 5665 5664 5663 5662 5662 5660 5659 5659 5657 5656 5655 5654 5653 5651 5650 5649 5649 5648 5648 5648 5648 5648 5648 5648 5650 5651 5651 5651 5651 5652 5653 5654 5657 5658 5658 5658 5659 5661 5663 5665 5668 5670
5654 5654 5653 5652 5651 5650 5649 5648 5647 5645 5644 5643 5641 5640 5639 5637 5636 5635 5634 5634 5634 5633 5633 5632 5633 5633 5634 5634 5635 5635 5635 5635 5636 5638 5641 5642 5642 5643 5644 5645 5647 5649 5652
5643 5642 5641 5640 5639 5637 5636 5635 5634 5633 5632 5630 5629 5628 5626 5624 5622 5621 5621 5620 5619 5619 5618 5617 5617 5617 5617 5618 5618 5618 5618 5619 5619 5619 5622 5624 5626 5627 5627 5628 5629 5631 5634